FW0019 Weather Reports


Display with metric or nautical units.
time (UTC)temp
F
wind
direction
speed
MPH
gust
MPH
rain 1hr
in
rain 24hr
in
rain mn
in
humidity
%
barometer
mb
20260904000033 69 115 10.0 17.0 0.00 0.00 0.00 52 877.1
20260903234539 70 150 8.0 18.0 0.00 0.00 0.00 52 877.1
20260903233031 70 154 12.0 19.0 0.00 0.00 0.00 51 877.3
20260903231519 71 175 11.0 18.0 0.00 0.00 0.00 51 877.4
20260903230018 71 145 8.0 19.0 0.00 0.00 0.00 51 877.5
20260903224512 72 144 10.0 22.0 0.00 0.00 0.00 49 877.7
20260903223006 72 94 12.0 21.0 0.00 0.00 0.00 47 877.9
20260903221502 73 158 11.0 18.0 0.00 0.00 0.00 47 878.0
20260903220058 73 111 11.0 20.0 0.00 0.00 0.00 43 877.9
20260903214554 74 116 8.0 14.0 0.00 0.00 0.00 33 878.1
20260903213051 74 140 11.0 18.0 0.00 0.00 0.00 29 878.2
20260903211602 74 126 9.0 18.0 0.00 0.00 0.00 28 878.3
20260903210041 75 123 10.0 18.0 0.00 0.00 0.00 27 878.3
20260903204537 74 121 11.0 23.0 0.00 0.00 0.00 27 878.3
20260903203033 74 147 11.0 20.0 0.00 0.00 0.00 25 878.2
20260903201528 74 156 8.0 21.0 0.00 0.00 0.00 25 878.5
20260903200024 74 163 10.0 19.0 0.00 0.00 0.00 23 878.6
20260903194520 73 166 10.0 20.0 0.00 0.00 0.00 22 878.6
20260903193015 73 146 10.0 25.0 0.00 0.00 0.00 22 878.7
20260903191519 73 154 10.0 16.0 0.00 0.00 0.00 21 878.9
20260903190111 72 150 8.0 17.0 0.00 0.00 0.00 22 879.0
20260903184502 72 130 11.0 18.0 0.00 0.00 0.00 21 879.1
20260903183102 71 73 10.0 17.0 0.00 0.00 0.00 21 879.4
20260903181552 71 107 9.0 17.0 0.00 0.00 0.00 21 879.4
20260903180050 71 136 10.0 16.0 0.00 0.00 0.00 22 879.4
20260903174545 70 155 10.0 16.0 0.00 0.00 0.00 23 879.4
20260903173041 69 159 6.0 15.0 0.00 0.00 0.00 22 879.4
20260903171538 68 133 7.0 13.0 0.00 0.00 0.00 23 879.3
20260903170033 68 176 6.0 13.0 0.00 0.00 0.00 24 879.3
20260903164527 68 165 9.0 13.0 0.00 0.00 0.00 26 879.1
20260903163023 67 149 8.0 14.0 0.00 0.00 0.00 27 879.1
20260903161517 66 119 6.0 12.0 0.00 0.00 0.00 30 879.1
20260903160013 65 159 8.0 14.0 0.00 0.00 0.00 33 879.0
20260903154509 64 118 7.0 15.0 0.00 0.00 0.00 35 878.9
20260903153003 64 135 8.0 13.0 0.00 0.00 0.00 35 878.8
20260903151600 63 114 7.0 13.0 0.00 0.00 0.00 35 878.9
20260903150055 62 140 7.0 11.0 0.00 0.00 0.00 35 878.9
20260903144553 61 140 6.0 10.0 0.00 0.00 0.00 33 878.8
20260903143048 59 117 4.0 8.0 0.00 0.00 0.00 31 878.8
20260903141543 58 109 4.0 8.0 0.00 0.00 0.00 29 878.6
20260903140044 58 118 6.0 10.0 0.00 0.00 0.00 27 878.4
20260903134534 57 100 6.0 11.0 0.00 0.00 0.00 26 878.2
20260903133029 56 116 6.0 9.0 0.00 0.00 0.00 30 878.1
20260903131525 57 117 7.0 12.0 0.00 0.00 0.00 25 878.2
20260903130020 57 109 7.0 12.0 0.00 0.00 0.00 24 878.1
20260903124526 57 109 6.0 12.0 0.00 0.00 0.00 26 878.0
20260903123015 57 147 5.0 11.0 0.00 0.00 0.00 27 877.9
20260903121508 57 133 6.0 10.0 0.00 0.00 0.00 28 877.9
20260903120003 58 129 5.0 13.0 0.00 0.00 0.00 26 877.9
20260903114559 57 117 9.0 13.0 0.00 0.00 0.00 22 877.9
20260903113054 57 113 4.0 10.0 0.00 0.00 0.00 24 878.1
20260903111549 58 117 4.0 14.0 0.00 0.00 0.00 22 878.2
20260903110046 58 108 4.0 9.0 0.00 0.00 0.00 20 878.2
20260903104542 58 119 3.0 10.0 0.00 0.00 0.00 21 878.3
20260903103038 58 132 4.0 14.0 0.00 0.00 0.00 18 878.3
20260903101531 58 119 3.0 10.0 0.00 0.00 0.00 16 878.5
20260903100029 59 111 7.0 10.0 0.00 0.00 0.00 13 878.5
20260903094532 60 121 6.0 13.0 0.00 0.00 0.00 12 878.5
20260903093020 60 114 7.0 12.0 0.00 0.00 0.00 10 878.6
20260903091514 60 82 9.0 13.0 0.00 0.00 0.00 10 878.7
20260903090016 60 108 8.0 17.0 0.00 0.00 0.00 8 878.8
20260903084506 60 106 8.0 17.0 0.00 0.00 0.00 7 878.9
20260903083001 60 102 8.0 13.0 0.00 0.00 0.00 8 879.2
20260903081613 59 117 6.0 12.0 0.00 0.00 0.00 8 879.3
20260903080052 59 111 6.0 14.0 0.00 0.00 0.00 7 879.4
20260903074555 58 95 5.0 10.0 0.00 0.00 0.00 9 879.5
20260903073055 58 93 3.0 8.0 0.00 0.00 0.00 18 879.5
20260903071558 58 98 3.0 8.0 0.00 0.00 0.00 17 879.4
20260903070041 59 120 2.0 9.0 0.00 0.00 0.00 13 879.4
20260903064540 61 117 3.0 11.0 0.00 0.00 0.00 11 879.3
20260903063046 61 85 7.0 12.0 0.00 0.00 0.00 10 879.2
20260903061540 62 113 8.0 15.0 0.00 0.00 0.00 12 879.1
20260903060108 62 115 7.0 15.0 0.00 0.00 0.00 11 879.1
20260903054537 62 115 9.0 14.0 0.00 0.00 0.00 12 879.2
20260903053035 62 111 9.0 15.0 0.00 0.00 0.00 10 879.4
20260903051535 62 102 7.0 16.0 0.00 0.00 0.00 11 879.4
20260903050034 62 105 7.0 14.0 0.00 0.00 0.00 11 879.6
20260903044536 62 107 7.0 15.0 0.00 0.00 0.00 11 879.7
20260903043032 63 98 6.0 10.0 0.00 0.00 0.00 11 879.6
20260903041532 63 92 7.0 14.0 0.00 0.00 0.00 10 879.6
20260903040049 63 111 7.0 15.0 0.00 0.00 0.00 11 879.6
20260903034532 62 79 6.0 12.0 0.00 0.00 0.00 13 879.4
20260903033032 60 103 3.0 12.0 0.00 0.00 0.00 23 879.4
20260903031531 58 112 4.0 8.0 0.00 0.00 0.00 63 879.3
20260903030024 58 105 3.0 9.0 0.00 0.00 0.00 60 879.2
20260903024523 59 113 3.0 9.0 0.00 0.00 0.00 63 879.2
20260903023035 60 79 4.0 9.0 0.00 0.00 0.00 62 879.2
20260903021521 61 121 4.0 12.0 0.00 0.00 0.00 61 879.1
20260903020019 63 105 7.0 11.0 0.00 0.00 0.00 58 879.1
20260903014517 64 90 8.0 16.0 0.00 0.00 0.00 54 879.0
20260903013014 66 117 6.0 12.0 0.00 0.00 0.00 49 879.2
20260903011513 67 130 9.0 15.0 0.00 0.00 0.00 45 879.3
20260903010034 68 119 5.0 14.0 0.00 0.00 0.00 42 879.3
20260903004511 69 103 8.0 16.0 0.00 0.00 0.00 41 879.3
20260903003010 71 134 8.0 17.0 0.00 0.00 0.00 38 879.2
20260903001512 71 133 9.0 18.0 0.00 0.00 0.00 36 879.4